User: anonymous   Login
Location: Cran-Gévrier
(45.9039°N, 6.1012°E)
Time: 08:04:34
(UTC+00:00)
Language:

DIWATA 2B (PO-101) - Orbit

View from above orbital plane
View from above orbital plane
View from above satellite
View from above satellite

Ground track
Ground track

The orbit data is extracted from the following two-line orbital elements,

1 43678U 18084H   23335.92142447  .00003257  00000-0  30945-3 0  9999
2 43678  98.0457 123.6157 0008793 334.9072  25.1718 14.94203051277305
Epoch (UTC): 01 December 2023 22:06:51
Eccentricity: 0.0008793
inclination: 98.0457°
perigee height: 579 km
apogee height: 591 km
right ascension of ascending node: 123.6157°
argument of perigee: 334.9072°
revolutions per day: 14.94203051
mean anomaly at epoch: 25.1718°
orbit number at epoch: 27730

The dashed part of the orbit path shows where the satellite is in the earth's shadow,  

DLR